WetterOnline ( https://www.wetteronline.at )

Wetter aktuell Arjeplog

Aktuelles Wetter: Arjeplog (432m)

6-stündlich | Neueste Meldungen
Ortszeit Temperatur Wetter
Mo, 21.10. 14:00 -0.7° C wolkenlos
Mo, 21.10. 8:00 -10.6° C wolkenlos
Mo, 21.10. 2:00 -10.8° C leicht bewölkt
So, 20.10. 20:00 -11.0° C wolkenlos
So, 20.10. 14:00 -5.4° C wolkig
So, 20.10. 8:00 -12.2° C wolkenlos
So, 20.10. 2:00 -6.1° C wolkenlos
Sa, 19.10. 20:00 -3.7° C wolkenlos
Ortszeit Temperatur Wetter
Mo, 21.10. 19:00 -2.8° C bewölkt
Mo, 21.10. 18:00 -2.3° C bedeckt
Mo, 21.10. 17:00 -1.9° C bedeckt
Mo, 21.10. 16:00 -2.1° C leicht bewölkt
Mo, 21.10. 15:00 -1.8° C wolkenlos
Mo, 21.10. 14:00 -0.7° C wolkenlos
Ortszeit Relative Feuchte Sichtweite
Mo, 21.10. 14:00 79% >50 km
Mo, 21.10. 8:00 90% 40 km
Mo, 21.10. 2:00 91% 50 km
So, 20.10. 20:00 92% 45 km
So, 20.10. 14:00 88% 45 km
So, 20.10. 8:00 91% 50 km
So, 20.10. 2:00 86% 50 km
Sa, 19.10. 20:00 80% 50 km
Ortszeit Relative Feuchte Sichtweite
Mo, 21.10. 19:00 91% >50 km
Mo, 21.10. 18:00 88% >50 km
Mo, 21.10. 17:00 86% 50 km
Mo, 21.10. 16:00 85% >50 km
Mo, 21.10. 15:00 83% >50 km
Mo, 21.10. 14:00 79% >50 km
Ortszeit Niederschlagsmenge Niederschlagsart
Mo, 21.10. 14:00 0.0 l/m2 in 1 Std. -
Mo, 21.10. 8:00 0.0 l/m2 in 12 Std. -
Mo, 21.10. 2:00 keine Meldung -
So, 20.10. 20:00 0.0 l/m2 in 12 Std. -
So, 20.10. 14:00 keine Meldung -
So, 20.10. 8:00 0.0 l/m2 in 12 Std. -
So, 20.10. 2:00 keine Meldung -
Sa, 19.10. 20:00 0.0 l/m2 in 12 Std. -
Ortszeit Niederschlagsmenge Niederschlagsart
Mo, 21.10. 19:00 0.0 l/m2 in 1 Std. -
Mo, 21.10. 18:00 0.0 l/m2 in 1 Std. -
Mo, 21.10. 17:00 0.0 l/m2 in 1 Std. -
Mo, 21.10. 16:00 0.0 l/m2 in 1 Std. -
Mo, 21.10. 15:00 0.0 l/m2 in 1 Std. -
Mo, 21.10. 14:00 0.0 l/m2 in 1 Std. -
Ortszeit Stärke Spitze Richtung
km/h Bft. km/h Grad Sektor
Mo, 21.10. 14:00 4 1 11 180° S
Mo, 21.10. 8:00 0 0 - - -
Mo, 21.10. 2:00 6 1 - 230° SW
So, 20.10. 20:00 4 1 - 130° SO
So, 20.10. 14:00 4 1 - 240° SW
So, 20.10. 8:00 0 0 - - -
So, 20.10. 2:00 6 1 - 350° N
Sa, 19.10. 20:00 6 1 - 20° N
Ortszeit Stärke Spitze Richtung
km/h Bft. km/h Grad Sektor
Mo, 21.10. 19:00 7 2 18 160° S
Mo, 21.10. 18:00 7 2 14 180° S
Mo, 21.10. 17:00 9 2 19 190° S
Mo, 21.10. 16:00 7 2 18 180° S
Mo, 21.10. 15:00 7 2 14 180° S
Mo, 21.10. 14:00 4 1 11 180° S
Ortszeit Untergrenze Bedeckung Gattung
total tief tief mittel hoch
Mo, 21.10. 14:00 - 0/8 0/8 - - -
Mo, 21.10. 8:00 - 0/8 0/8 - - -
Mo, 21.10. 2:00 1380 m 2/8 2/8 - - -
So, 20.10. 20:00 - 0/8 0/8 - - -
So, 20.10. 14:00 90 m 6/8 6/8 - - -
So, 20.10. 8:00 - 0/8 0/8 - - -
So, 20.10. 2:00 - 0/8 0/8 - - -
Sa, 19.10. 20:00 - 0/8 0/8 - - -
Ortszeit Bedeckungsgrad in Achtel und Wolkenuntergrenze
Mo, 21.10. 19:00 2(1500m) 3(2100m) 7(2400m)
Mo, 21.10. 18:00 8(3300m)
Mo, 21.10. 17:00 6(1500m) 8(1800m)
Mo, 21.10. 16:00 4(2100m)
Mo, 21.10. 15:00 keine Wolken
Mo, 21.10. 14:00 keine Wolken
Ortszeit Luftdruck NN (hPa) Tendenz (hPa in 3 Std.)
Mo, 21.10. 14:00 1015 - 0,6
Mo, 21.10. 8:00 1016 0,0
Mo, 21.10. 2:00 1017 - 0,4
So, 20.10. 20:00 1019 - 1,0
So, 20.10. 14:00 1021 - 0,8
So, 20.10. 8:00 1023 + 0,7
So, 20.10. 2:00 1020 + 1,0
Sa, 19.10. 20:00 1016 + 2,5
Ortszeit Luftdruck NN (hPa) Tendenz (hPa in 3 Std.)
Mo, 21.10. 19:00 1012 - 1,9
Mo, 21.10. 18:00 1013 - 1,6
Mo, 21.10. 17:00 1013 - 1,3
Mo, 21.10. 16:00 1014 - 1,1
Mo, 21.10. 15:00 1014 - 0,8
Mo, 21.10. 14:00 1015 - 0,6
Ortszeit Schneehöhe (cm)
Mo, 21.10. 14:00 -
Mo, 21.10. 8:00 -
Mo, 21.10. 2:00 -
So, 20.10. 20:00 -
So, 20.10. 14:00 -
So, 20.10. 8:00 -
So, 20.10. 2:00 -
Sa, 19.10. 20:00 -
Ortszeit Schneehöhe (cm)
Mo, 21.10. 19:00 -
Mo, 21.10. 18:00 -
Mo, 21.10. 17:00 -
Mo, 21.10. 16:00 -
Mo, 21.10. 15:00 -
Mo, 21.10. 14:00 -
Link zu dieser Seite / Seite empfehlen

Das Wetter in ...